| time (UTC) | temp F | wind direction | speed knots | gust knots | rain 1hr in | rain 24hr in | rain mn in | humidity % | barometer mb |
| 20260505022902 | 71 | 133 | 2.6 | 7.0 | 0.00 | 0.00 | 0.00 | 57 | 1007.8 |
| 20260505022353 | 71 | 135 | 2.6 | 7.0 | 0.00 | 0.00 | 0.00 | 57 | 1007.8 |
| 20260505021843 | 71 | 148 | 2.6 | 7.0 | 0.00 | 0.00 | 0.00 | 57 | 1007.8 |
| 20260505021603 | 71 | 142 | 2.6 | 4.3 | 0.00 | 0.00 | 0.00 | 56 | 1007.8 |
| 20260505020804 | 71 | 132 | 2.6 | 7.8 | 0.00 | 0.00 | 0.00 | 56 | 1007.8 |
| 20260505020254 | 71 | 176 | 0.9 | 7.8 | 0.00 | 0.00 | 0.00 | 56 | 1007.8 |
| 20260505015754 | 72 | 155 | 2.6 | 4.3 | 0.00 | 0.00 | 0.00 | 55 | 1007.5 |
| 20260505015243 | 72 | 143 | 2.6 | 4.3 | 0.00 | 0.00 | 0.00 | 55 | 1007.5 |
| 20260505014744 | 72 | 143 | 2.6 | 7.0 | 0.00 | 0.00 | 0.00 | 55 | 1007.5 |
| 20260505014227 | 72 | 129 | 2.6 | 7.0 | 0.00 | 0.00 | 0.00 | 55 | 1007.4 |
| 20260505013707 | 72 | 149 | 2.6 | 4.3 | 0.00 | 0.00 | 0.00 | 55 | 1007.4 |
| 20260505013204 | 73 | 132 | 2.6 | 4.3 | 0.00 | 0.00 | 0.00 | 53 | 1007.4 |
| 20260505012658 | 73 | 166 | 2.6 | 4.3 | 0.00 | 0.00 | 0.00 | 54 | 1007.4 |
| 20260505012154 | 73 | 157 | 2.6 | 7.8 | 0.00 | 0.00 | 0.00 | 53 | 1007.4 |
| 20260505011654 | 73 | 149 | 3.5 | 7.8 | 0.00 | 0.00 | 0.00 | 53 | 1007.4 |
| 20260505011121 | 73 | 135 | 3.5 | 7.8 | 0.00 | 0.00 | 0.00 | 53 | 1007.4 |
| 20260505010541 | 73 | 136 | 2.6 | 7.8 | 0.00 | 0.00 | 0.00 | 53 | 1007.4 |
| 20260505010006 | 74 | 143 | 2.6 | 7.0 | 0.00 | 0.00 | 0.00 | 51 | 1007.4 |
| 20260505005432 | 74 | 138 | 2.6 | 7.8 | 0.00 | 0.00 | 0.00 | 53 | 1007.4 |
| 20260505004901 | 74 | 152 | 2.6 | 7.8 | 0.00 | 0.00 | 0.00 | 51 | 1007.4 |
| 20260505004327 | 74 | 155 | 2.6 | 7.0 | 0.00 | 0.00 | 0.00 | 51 | 1007.1 |
| 20260505003752 | 74 | 146 | 2.6 | 7.0 | 0.00 | 0.00 | 0.00 | 51 | 1007.1 |
| 20260505003220 | 74 | 140 | 0.9 | 7.0 | 0.00 | 0.00 | 0.00 | 53 | 1007.1 |
| 20260505002650 | 75 | 143 | 0.9 | 4.3 | 0.00 | 0.00 | 0.00 | 51 | 1007.4 |
| 20260505002359 | 75 | 162 | 2.6 | 7.0 | 0.00 | 0.00 | 0.00 | 50 | 1007.4 |
| 20260505001824 | 75 | 122 | 3.5 | 7.8 | 0.00 | 0.00 | 0.00 | 49 | 1007.4 |
| 20260505001030 | 75 | 132 | 3.5 | 8.7 | 0.00 | 0.00 | 0.00 | 49 | 1007.3 |
| 20260505000718 | 76 | 138 | 3.5 | 8.7 | 0.00 | 0.00 | 0.00 | 49 | 1007.3 |
| 20260504235929 | 76 | 145 | 3.5 | 10.4 | 0.00 | 0.00 | 0.00 | 48 | 1007.3 |
| 20260504235354 | 76 | 173 | 3.5 | 10.4 | 0.00 | 0.00 | 0.00 | 47 | 1007.4 |
| 20260504234823 | 76 | 131 | 3.5 | 10.4 | 0.00 | 0.00 | 0.00 | 47 | 1007.4 |
| 20260504234253 | 76 | 225 | 2.6 | 7.8 | 0.00 | 0.00 | 0.00 | 47 | 1007.7 |
| 20260504233722 | 76 | 135 | 2.6 | 7.8 | 0.00 | 0.00 | 0.00 | 47 | 1007.7 |
| 20260504233150 | 77 | 142 | 2.6 | 8.7 | 0.00 | 0.00 | 0.00 | 46 | 1007.7 |
| 20260504232620 | 77 | 146 | 2.6 | 8.7 | 0.00 | 0.00 | 0.00 | 45 | 1008.0 |
| 20260504232050 | 77 | 148 | 2.6 | 7.0 | 0.00 | 0.00 | 0.00 | 45 | 1008.0 |
| 20260504231520 | 77 | 138 | 2.6 | 7.0 | 0.00 | 0.00 | 0.00 | 44 | 1008.0 |
| 20260504230953 | 78 | 207 | 3.5 | 10.4 | 0.00 | 0.00 | 0.00 | 45 | 1008.1 |
| 20260504230642 | 78 | 149 | 3.5 | 10.4 | 0.00 | 0.00 | 0.00 | 44 | 1008.1 |
| 20260504225911 | 78 | 152 | 3.5 | 8.7 | 0.00 | 0.00 | 0.00 | 43 | 1008.2 |
| 20260504225336 | 78 | 121 | 5.2 | 10.4 | 0.00 | 0.00 | 0.00 | 44 | 1008.2 |
| 20260504224806 | 78 | 188 | 4.3 | 8.7 | 0.00 | 0.00 | 0.00 | 42 | 1008.2 |
| 20260504224234 | 79 | 205 | 4.3 | 8.7 | 0.00 | 0.00 | 0.00 | 42 | 1008.2 |
| 20260504223704 | 79 | 208 | 4.3 | 12.2 | 0.00 | 0.00 | 0.00 | 42 | 1008.2 |
| 20260504223132 | 79 | 116 | 4.3 | 14.8 | 0.00 | 0.00 | 0.00 | 41 | 1008.2 |
| 20260504222603 | 79 | 152 | 7.8 | 18.2 | 0.00 | 0.00 | 0.00 | 40 | 1008.3 |
| 20260504222030 | 79 | 176 | 7.8 | 18.2 | 0.00 | 0.00 | 0.00 | 41 | 1008.3 |
| 20260504221458 | 79 | 176 | 7.0 | 14.8 | 0.00 | 0.00 | 0.00 | 40 | 1008.3 |
| 20260504221209 | 79 | 211 | 5.2 | 11.3 | 0.00 | 0.00 | 0.00 | 41 | 1008.5 |
| 20260504220429 | 79 | 164 | 4.3 | 12.2 | 0.00 | 0.00 | 0.00 | 41 | 1008.5 |
| 20260504215926 | 80 | 238 | 5.2 | 12.2 | 0.00 | 0.00 | 0.00 | 41 | 1008.5 |
| 20260504215421 | 80 | 119 | 5.2 | 12.2 | 0.00 | 0.00 | 0.00 | 41 | 1008.5 |
| 20260504214922 | 80 | 139 | 5.2 | 16.5 | 0.00 | 0.00 | 0.00 | 41 | 1008.5 |
| 20260504214402 | 79 | 252 | 5.2 | 16.5 | 0.00 | 0.00 | 0.00 | 42 | 1008.6 |
| 20260504213852 | 80 | 225 | 4.3 | 12.2 | 0.00 | 0.00 | 0.00 | 40 | 1008.6 |
| 20260504213352 | 80 | 166 | 5.2 | 12.2 | 0.00 | 0.00 | 0.00 | 39 | 1008.6 |
| 20260504213101 | 80 | 159 | 5.2 | 12.2 | 0.00 | 0.00 | 0.00 | 40 | 1008.7 |
| 20260504212338 | 80 | 142 | 5.2 | 10.4 | 0.00 | 0.00 | 0.00 | 41 | 1008.7 |
| 20260504211817 | 80 | 143 | 5.2 | 16.5 | 0.00 | 0.00 | 0.00 | 38 | 1008.7 |
| 20260504211250 | 80 | 119 | 5.2 | 16.5 | 0.00 | 0.00 | 0.00 | 40 | 1008.9 |
| 20260504210746 | 80 | 200 | 4.3 | 12.2 | 0.00 | 0.00 | 0.00 | 39 | 1008.9 |
| 20260504210446 | 80 | 173 | 4.3 | 12.2 | 0.00 | 0.00 | 0.00 | 41 | 1008.9 |
| 20260504205659 | 80 | 136 | 4.3 | 12.2 | 0.00 | 0.00 | 0.00 | 39 | 1009.1 |
| 20260504205159 | 80 | 133 | 4.3 | 11.3 | 0.00 | 0.00 | 0.00 | 40 | 1009.1 |
| 20260504205010 | 80 | 200 | 5.2 | 12.2 | 0.00 | 0.00 | 0.00 | 41 | 1009.1 |
| 20260504203630 | 80 | 136 | 4.3 | 12.2 | 0.00 | 0.00 | 0.00 | 41 | 1009.3 |
| 20260504203128 | 80 | 157 | 5.2 | 14.8 | 0.00 | 0.00 | 0.00 | 41 | 1009.3 |
| 20260504202608 | 80 | 248 | 7.0 | 15.6 | 0.00 | 0.00 | 0.00 | 38 | 1009.6 |
| 20260504202104 | 81 | 121 | 5.2 | 12.2 | 0.00 | 0.00 | 0.00 | 37 | 1009.6 |
| 20260504201540 | 80 | 138 | 5.2 | 12.2 | 0.00 | 0.00 | 0.00 | 40 | 1009.6 |
| 20260504201037 | 80 | 125 | 7.0 | 15.6 | 0.00 | 0.00 | 0.00 | 39 | 1009.7 |
| 20260504200518 | 80 | 131 | 7.8 | 15.6 | 0.00 | 0.00 | 0.00 | 39 | 1009.8 |
| 20260504200014 | 80 | 94 | 7.8 | 15.6 | 0.00 | 0.00 | 0.00 | 39 | 1009.8 |
| 20260504195444 | 79 | 194 | 7.8 | 15.6 | 0.00 | 0.00 | 0.00 | 40 | 1010.1 |
| 20260504195146 | 80 | 164 | 7.0 | 15.6 | 0.00 | 0.00 | 0.00 | 39 | 1010.1 |
| 20260504194900 | 79 | 176 | 7.0 | 18.2 | 0.00 | 0.00 | 0.00 | 39 | 1010.1 |
| 20260504194131 | 79 | 190 | 7.8 | 20.0 | 0.00 | 0.00 | 0.00 | 40 | 1010.1 |
| 20260504193404 | 79 | 102 | 8.7 | 20.0 | 0.00 | 0.00 | 0.00 | 40 | 1010.1 |
| 20260504192838 | 79 | 104 | 7.0 | 16.5 | 0.00 | 0.00 | 0.00 | 40 | 1010.4 |
| 20260504192603 | 80 | 236 | 4.3 | 15.6 | 0.00 | 0.00 | 0.00 | 38 | 1010.4 |
| 20260504191807 | 80 | 224 | 5.2 | 15.6 | 0.00 | 0.00 | 0.00 | 39 | 1010.4 |
| 20260504191304 | 80 | 108 | 5.2 | 14.8 | 0.00 | 0.00 | 0.00 | 40 | 1010.7 |
| 20260504190738 | 79 | 112 | 7.0 | 15.6 | 0.00 | 0.00 | 0.00 | 41 | 1010.7 |
| 20260504190454 | 79 | 156 | 7.8 | 16.5 | 0.00 | 0.00 | 0.00 | 40 | 1010.7 |
| 20260504185710 | 79 | 139 | 7.8 | 18.2 | 0.00 | 0.00 | 0.00 | 41 | 1010.7 |
| 20260504185206 | 79 | 180 | 7.8 | 18.2 | 0.00 | 0.00 | 0.00 | 41 | 1010.7 |
| 20260504184640 | 79 | 259 | 7.0 | 12.2 | 0.00 | 0.00 | 0.00 | 42 | 1010.7 |
| 20260504184136 | 79 | 35 | 7.0 | 15.6 | 0.00 | 0.00 | 0.00 | 42 | 1010.9 |
| 20260504183609 | 79 | 129 | 5.2 | 15.6 | 0.00 | 0.00 | 0.00 | 41 | 1010.9 |
| 20260504183106 | 78 | 224 | 5.2 | 12.2 | 0.00 | 0.00 | 0.00 | 41 | 1010.9 |
| 20260504182802 | 78 | 13 | 7.0 | 14.8 | 0.00 | 0.00 | 0.00 | 42 | 1010.9 |
| 20260504182036 | 78 | 218 | 4.3 | 14.8 | 0.00 | 0.00 | 0.00 | 43 | 1010.9 |
| 20260504181509 | 78 | 228 | 5.2 | 11.3 | 0.00 | 0.00 | 0.00 | 39 | 1010.9 |
| 20260504181002 | 78 | 201 | 5.2 | 18.2 | 0.00 | 0.00 | 0.00 | 40 | 1011.2 |
| 20260504180458 | 78 | 248 | 5.2 | 18.2 | 0.00 | 0.00 | 0.00 | 42 | 1011.2 |
| 20260504175934 | 78 | 166 | 7.0 | 12.2 | 0.00 | 0.00 | 0.00 | 43 | 1011.2 |
| 20260504175434 | 78 | 220 | 7.8 | 15.6 | 0.00 | 0.00 | 0.00 | 40 | 1011.6 |
| 20260504174908 | 77 | 131 | 7.8 | 23.5 | 0.00 | 0.00 | 0.00 | 41 | 1011.6 |
| 20260504174354 | 78 | 143 | 7.0 | 23.5 | 0.00 | 0.00 | 0.00 | 41 | 1012.0 |
| 20260504173850 | 78 | 225 | 4.3 | 12.2 | 0.00 | 0.00 | 0.00 | 40 | 1012.0 |
| 20260504173326 | 78 | 84 | 4.3 | 15.6 | 0.00 | 0.00 | 0.00 | 38 | 1012.0 |
| 20260504172828 | 77 | 135 | 5.2 | 14.8 | 0.00 | 0.00 | 0.00 | 40 | 1012.0 |
| 20260504172309 | 77 | 258 | 5.2 | 14.8 | 0.00 | 0.00 | 0.00 | 41 | 1012.0 |
| 20260504171808 | 77 | 140 | 7.0 | 14.8 | 0.00 | 0.00 | 0.00 | 41 | 1012.0 |
| 20260504171242 | 77 | 172 | 7.8 | 14.8 | 0.00 | 0.00 | 0.00 | 41 | 1012.2 |
| 20260504170924 | 77 | 124 | 7.8 | 22.6 | 0.00 | 0.00 | 0.00 | 41 | 1012.2 |
| 20260504170144 | 77 | 90 | 7.8 | 15.6 | 0.00 | 0.00 | 0.00 | 39 | 1012.2 |
| 20260504160429 | 75 | 253 | 4.3 | 14.8 | 0.00 | 0.00 | 0.00 | 46 | 1012.8 |
| 20260504150713 | 71 | 157 | 3.5 | 8.7 | 0.00 | 0.00 | 0.00 | 56 | 1012.9 |
| 20260504150141 | 70 | 143 | 4.3 | 10.4 | 0.00 | 0.00 | 0.00 | 58 | 1012.9 |
| 20260504140853 | 66 | 204 | 2.6 | 8.7 | 0.00 | 0.00 | 0.00 | 65 | 1013.3 |
| 20260504140354 | 66 | 211 | 3.5 | 10.4 | 0.00 | 0.00 | 0.00 | 66 | 1013.2 |
| 20260504130619 | 61 | 160 | 3.5 | 8.7 | 0.00 | 0.00 | 0.00 | 76 | 1012.7 |
| 20260504100143 | 58 | 172 | 0.0 | 0.9 | 0.00 | 0.00 | 0.00 | 83 | 1012.3 |
| 20260504090135 | 60 | 172 | 0.9 | 2.6 | 0.00 | 0.00 | 0.00 | 78 | 1012.4 |
| 20260504081947 | 61 | 172 | 0.9 | 2.6 | 0.00 | 0.00 | 0.00 | 75 | 1012.6 |
| 20260504081639 | 61 | 172 | 0.9 | 2.6 | 0.00 | 0.00 | 0.00 | 75 | 1012.6 |
| 20260504080838 | 61 | 173 | 0.0 | 2.6 | 0.00 | 0.00 | 0.00 | 74 | 1012.6 |
| 20260504080333 | 62 | 180 | 0.0 | 2.6 | 0.00 | 0.00 | 0.00 | 74 | 1012.6 |
| 20260504050212 | 65 | 146 | 0.9 | 2.6 | 0.00 | 0.00 | 0.00 | 66 | 1013.6 |
| 20260504045855 | 65 | 146 | 0.9 | 2.6 | 0.00 | 0.00 | 0.00 | 66 | 1013.6 |
| 20260504045056 | 65 | 146 | 0.0 | 2.6 | 0.00 | 0.00 | 0.00 | 66 | 1013.6 |
| 20260504044520 | 65 | 146 | 0.0 | 2.6 | 0.00 | 0.00 | 0.00 | 65 | 1013.6 |
| 20260504044229 | 66 | 146 | 0.9 | 2.6 | 0.00 | 0.00 | 0.00 | 65 | 1013.5 |
| 20260504043654 | 66 | 146 | 0.9 | 4.3 | 0.00 | 0.00 | 0.00 | 64 | 1013.5 |
| 20260504042858 | 66 | 146 | 0.9 | 4.3 | 0.00 | 0.00 | 0.00 | 63 | 1013.7 |
| 20260504042551 | 67 | 146 | 0.9 | 4.3 | 0.00 | 0.00 | 0.00 | 62 | 1013.8 |
| 20260504041753 | 67 | 145 | 0.9 | 4.3 | 0.00 | 0.00 | 0.00 | 62 | 1013.8 |
| 20260504041214 | 67 | 145 | 0.9 | 4.3 | 0.00 | 0.00 | 0.00 | 61 | 1014.0 |
| 20260504040642 | 67 | 129 | 0.9 | 4.3 | 0.00 | 0.00 | 0.00 | 61 | 1014.0 |
| 20260504040110 | 67 | 146 | 0.9 | 4.3 | 0.00 | 0.00 | 0.00 | 61 | 1014.0 |
| 20260504035538 | 68 | 140 | 0.9 | 4.3 | 0.00 | 0.00 | 0.00 | 60 | 1014.0 |
| 20260504035008 | 68 | 142 | 0.9 | 4.3 | 0.00 | 0.00 | 0.00 | 60 | 1014.0 |
| 20260504034438 | 68 | 146 | 0.9 | 4.3 | 0.00 | 0.00 | 0.00 | 60 | 1013.9 |
| 20260504034129 | 68 | 163 | 0.9 | 2.6 | 0.00 | 0.00 | 0.00 | 60 | 1013.9 |
| 20260504033400 | 68 | 124 | 0.9 | 7.0 | 0.00 | 0.00 | 0.00 | 59 | 1013.9 |
| 20260504032827 | 68 | 116 | 0.9 | 7.0 | 0.00 | 0.00 | 0.00 | 58 | 1014.0 |
| 20260504032315 | 69 | 173 | 0.9 | 4.3 | 0.00 | 0.00 | 0.00 | 58 | 1014.0 |
| 20260504031744 | 69 | 132 | 0.9 | 7.0 | 0.00 | 0.00 | 0.00 | 58 | 1014.0 |
| 20260504031654 | 69 | 131 | 0.9 | 7.0 | 0.00 | 0.00 | 0.00 | 57 | 1013.9 |
| 20260504030645 | 69 | 146 | 2.6 | 4.3 | 0.00 | 0.00 | 0.00 | 58 | 1013.9 |
| 20260504030114 | 69 | 143 | 2.6 | 4.3 | 0.00 | 0.00 | 0.00 | 58 | 1013.9 |
| 20260504025544 | 69 | 155 | 0.9 | 4.3 | 0.00 | 0.00 | 0.00 | 57 | 1013.9 |
| 20260504025014 | 69 | 143 | 2.6 | 4.3 | 0.00 | 0.00 | 0.00 | 57 | 1013.9 |
| 20260504024443 | 69 | 146 | 2.6 | 7.0 | 0.00 | 0.00 | 0.00 | 57 | 1013.8 |
| 20260504024135 | 69 | 146 | 2.6 | 7.0 | 0.00 | 0.00 | 0.00 | 57 | 1013.8 |
| 20260504023342 | 69 | 139 | 0.9 | 7.0 | 0.00 | 0.00 | 0.00 | 57 | 1013.8 |